Weather in Novohuivynske

Ukraine / Zhytomyr Region     50°12′24″N   28°41′31″E
temp.,
°C
wind,
m/s
gust,
m/s
humid.,
%
clouds,
%
prec.,
mm/h
press.,
hPa
HPBL,
m
4 july, mon
mon400:00+16sse368356 0.7 101890
03:00+15sse11812 0.7 101811
06:00+15se228239 0.0 101819
09:00+21s22604 0.0 1018316
12:00+26se334521 0.0 10171176
15:00+28sw334322 0.0 10162124
18:00+28sw22429 0.0 10151359
21:00+22sse11560 0.0 101511
5 july, tue
tue500:00+19s11660 0.0 101611
03:00+18s22708 0.0 101611
06:00+18wnw1177100 0.0 101611
09:00+24nnw235874 0.0 1016390
12:00+28n22455 0.0 10161575
15:00+30nw21365 0.0 10152405
18:00+30n323717 0.0 10131970
21:00+23nne47677 0.0 1014116
6 july, wed
wed600:00+20ne3369100 0.0 101447
03:00+20e226389 0.0 101312
06:00+20ese116441 0.0 101312
09:00+23sse1167100 2.3 1012198
12:00+28wsw3446100 0.1 10131172
15:00+27nnw555392 0.1 10121047
18:00+25nnw5761100 0.0 1012788
21:00+19nnw5892100 0.8 1015307
7 july, thu
thu700:00+15n3897100 0.2 1015316
03:00+15nnw3798100 0.3 1014242
06:00+15n4796100 0.3 1015346
09:00+16n4591100 0.6 1016499
12:00+18n4477100 0.1 1016729
15:00+21nne3369100 0.5 10151074
18:00+20nnw4574100 0.1 1015339
21:00+18nnw3788100 1.0 1013195
8 july, fri
fri800:00+15nnw289799 2.0 1014204
03:00+15n3797100 4.4 1014216
06:00+15n389893 3.1 1013283
09:00+17ne3492100 7.3 1013374
12:00+20ne338073 0.2 1013642
15:00+23ne4465100 0.2 10121141
18:00+23n4468100 0.0 1012719
21:00+19n3884100 0.3 1012213